Погода в Толоне

Россия / Республика Саха (Якутия)     59°27′27″N   111°32′20″E
темп.,
°C
ветер,
м/с
пор.,
м/с
влажн.,
%
обл.,
%
осадки,
мм/ч
давл.,
гПа
погр.,
м
1 марта, пн
пн100:00−26юз2497100 0.0 103576
03:00−28юз229898 0.0 103419
06:00−28юз1298100 0.0 103320
09:00−29ююз1298100 0.1 103319
12:00−24юз2491100 0.1 1031521
15:00−21юз2381100 0.1 10281064
18:00−22ююз1291100 0.1 1026203
21:00−26юв119899 0.1 102519
2 марта, вт
вт200:00−27всв119898 0.0 102419
03:00−26св119999 0.1 102319
06:00−27св1299100 0.0 102119
09:00−27ссв1299100 0.1 102073
12:00−24св2394100 0.1 1019296
15:00−21ссв2487100 0.1 1017671
18:00−22ссв3489100 0.1 1017760
21:00−26ссв2698100 0.1 1020164
3 марта, ср
ср300:00−29с229899 0.0 102128
03:00−31ссз129897 0.0 102219
06:00−32сз129899 0.0 102339
09:00−33сз129898 0.1 102525
12:00−29ссз2390100 0.0 1025380
15:00−25ссз2383100 0.1 1025723
18:00−26с2490100 0.1 1027698
21:00−31ссз1297100 0.1 103019
4 марта, чт
чт400:00−34сз1198100 0.0 103219
03:00−36зсз119892 0.0 103419
06:00−38зсз11989 0.0 103619
09:00−38з11974 0.0 103919
12:00−30зюз128523 0.0 1038361
15:00−26юз237859 0.0 1038682
18:00−25юз2485100 0.0 1039604
21:00−30ююз229598 0.0 104119
5 марта, пт
пт500:00−32ююз229532 0.0 104219
03:00−33ююз229516 0.0 104319
06:00−34ю22970 0.0 104319
09:00−34ю22960 0.0 104325
12:00−26ю24845 0.0 1040311
15:00−21ю368111 0.0 1037506
18:00−19ю378377 0.0 1034558
21:00−25юв129148 0.0 103320